GEFSSE_con_cape1000_222.txt.gz
Probability
19 45 52 68 74 71 71 71 71 65 61 61 61 55 55 48 48 52 52 48 45 39 39 32 29 26 29 19 10 10 19 16 16 16 16 13 13 13 10 6 6 0 6
19 48 55 68 68 68 71 68 65 61 58 58 58 58 55 55 52 48 45 48 48 48 45 35 32 23 19 23 10 10 13 13 16 13 10 10 6 6 10 10 10 6 6
26 45 48 68 58 61 61 61 58 61 58 61 58 58 61 61 52 52 48 45 48 48 45 35 32 23 16 16 13 13 10 6 3 0 3 3 3 6 3 10 13 6 6
29 45 48 55 55 58 61 61 55 52 52 48 55 52 55 55 55 48 45 42 39 39 35 35 29 29 19 19 19 16 10 3 0 0 0 6 3 3 3 16 16 10 10
39 42 39 48 52 52 48 45 45 42 42 39 39 39 39 39 39 39 42 35 39 35 32 29 29 26 23 23 26 16 6 3 3 0 0 3 3 3 6 10 10 6 10
32 35 42 48 45 45 42 42 35 35 39 35 35 35 35 29 26 26 26 26 23 26 26 23 23 23 23 23 19 13 6 6 0 0 3 0 3 6 6 6 16 16 16
26 26 32 42 39 35 35 35 29 29 26 26 26 26 19 26 23 23 23 19 19 26 16 16 19 13 13 16 16 13 10 6 0 0 0 0 6 3 3 6 10 13 10
23 23 26 35 35 35 32 32 29 26 26 26 23 23 23 23 23 13 16 16 16 16 16 10 6 6 10 6 13 16 13 0 0 0 3 3 3 6 3 10 13 10 10
23 23 26 29 29 29 29 29 29 26 26 23 23 19 19 19 13 13 10 10 13 10 10 6 6 6 6 10 10 13 3 0 0 0 0 6 0 3 3 6 6 6 6
19 19 23 23 23 26 26 23 23 19 19 19 19 16 13 13 13 10 10 6 6 6 10 6 6 6 6 10 10 10 0 0 0 0 6 3 0 3 3 6 6 6 3
23 19 19 19 23 19 23 23 23 16 13 13 10 6 6 10 6 6 6 3 6 6 3 6 6 6 6 6 3 3 0 0 0 0 0 0 0 3 6 10 6 6 6
16 16 16 19 19 23 19 19 19 16 13 13 13 6 6 6 6 6 0 0 0 0 0 0 0 0 0 3 3 0 3 0 0 3 0 0 0 3 3 6 3 3 6
10 13 16 19 19 16 19 16 16 13 16 10 6 6 6 6 6 3 3 0 0 0 0 0 0 0 0 3 3 3 3 3 6 3 0 0 3 3 6 6 6 3 0
10 10 10 13 13 13 13 13 13 10 10 10 10 6 6 3 3 3 3 3 3 0 0 0 0 0 0 0 0 0 0 3 3 3 0 0 0 3 3 0 3 3 3
10 10 6 10 10 13 13 13 13 10 6 10 10 3 3 3 3 3 3 3 3 3 0 0 0 0 0 0 0 0 0 0 0 0 0 0 0 0 0 0 0 0 3
6 6 6 10 10 10 10 13 10 10 6 6 3 3 0 0 0 0 0 0 3 3 0 0 0 0 0 0 0 0 0 0 0 0 0 0 0 0 0 0 0 0 0
6 6 6 6 10 10 10 6 6 10 3 0 0 0 0 0 0 0 0 0 0 0 0 0 0 0 0 0 0 0 0 0 0 0 0 0 0 0 0 0 0 0 0
6 6 6 6 6 10 6 6 3 3 3 0 0 0 0 0 0 0 0 0 0 0 0 0 0 0 0 0 0 0 0 0 0 0 0 0 0 0 0 0 0 0 0
3 6 6 3 3 6 6 3 0 0 0 0 0 0 0 0 0 0 0 0 0 0 0 0 0 0 0 0 0 0 0 0 0 0 0 0 0 0 0 0 0 0 0
0 3 6 3 3 3 3 3 0 0 0 0 0 0 0 0 0 0 0 0 0 0 0 0 0 0 0 0 0 0 0 0 0 0 0 0 0 0 0 0 0 0 0
0 0 3 3 3 3 3 0 0 0 0 0 0 0 0 0 0 0 0 0 0 0 0 0 0 0 0 0 0 0 0 0 0 0 0 0 0 0 0 0 0 0 0
0 0 0 0 3 0 0 0 0 0 0 0 0 0 0 0 0 0 0 0 0 0 0 0 0 0 0 0 0 0 0 0 0 0 0 0 0 0 0 0 0 0 0
0 0 0 0 0 0 3 3 0 0 0 0 0 0 0 0 0 0 0 0 0 0 0 0 0 0 0 0 0 0 0 0 0 0 0 0 0 0 0 0 0 0 0
0 0 0 0 0 0 3 3 0 0 0 0 0 0 0 0 0 0 0 0 0 0 0 0 0 0 0 0 0 0 0 0 0 0 0 0 0 0 0 0 0 0 0
0 0 0 0 0 0 0 3 0 0 0 0 0 0 0 0 0 0 0 0 0 0 0 0 0 0 0 0 0 0 0 0 0 0 0 0 0 0 0 0 0 0 0
0 0 0 0 0 0 0 0 0 0 0 0 0 0 0 0 0 0 0 0 0 0 0 0 0 0 0 0 0 0 0 0 0 0 0 0 0 0 0 0 0 0 0

GEFSSE_con_cape1000_228.txt.gz
Probability
42 45 71 77 77 71 68 65 65 61 61 61 58 55 52 52 52 52 52 45 42 39 32 29 23 19 16 13 16 13 16 16 19 19 10 6 6 6 13 13 13 3 6
45 48 71 74 71 71 65 61 61 65 65 61 55 52 52 48 52 52 48 45 42 39 32 29 23 19 19 19 16 6 16 13 13 13 10 6 3 3 6 13 10 3 6
48 45 65 71 68 68 68 65 65 65 58 58 58 55 55 55 48 48 45 45 42 32 29 26 23 19 26 23 19 13 13 10 10 6 6 6 3 3 3 13 13 10 6
42 42 48 61 65 65 65 58 58 61 58 58 55 52 52 48 48 42 42 42 35 32 32 32 26 23 26 23 16 10 10 13 10 3 3 0 0 6 6 6 10 13 6
39 39 48 61 61 61 61 58 55 52 48 48 45 42 42 39 39 35 39 39 35 39 32 29 23 26 26 23 19 13 10 6 3 0 0 0 0 3 3 3 6 3 10
35 35 39 52 52 52 52 52 42 42 42 39 39 35 35 35 26 26 26 26 26 29 32 29 16 23 26 26 23 13 6 6 0 0 0 0 0 3 3 3 3 3 3
35 35 39 45 48 45 45 45 35 32 29 26 26 26 29 26 23 23 23 23 23 23 19 19 23 16 16 19 16 13 10 6 0 0 0 0 3 3 3 3 3 3 3
32 29 32 42 42 42 39 35 35 29 26 26 23 23 19 19 23 23 19 23 23 19 13 13 10 13 13 10 10 6 6 0 0 0 0 0 3 3 3 3 3 3 3
29 26 26 32 35 35 32 32 29 23 23 23 23 23 19 19 19 19 19 16 10 10 13 13 13 13 6 10 10 6 6 0 0 0 0 0 3 3 3 3 3 3 6
26 26 23 19 23 23 23 23 23 23 23 23 16 16 16 16 16 16 13 10 10 10 13 13 10 10 6 10 10 6 3 0 0 0 0 0 3 6 3 3 3 3 3
23 19 16 16 16 16 16 13 16 16 16 16 16 10 10 10 6 6 6 6 6 10 10 6 10 10 6 10 6 3 0 0 0 0 0 0 3 6 6 6 3 6 3
19 19 19 13 16 13 10 10 13 16 13 10 6 6 6 6 6 6 0 3 6 6 6 3 3 0 0 0 0 0 0 0 0 0 0 0 3 3 3 6 6 6 3
19 19 16 10 10 13 10 10 10 10 10 10 10 6 6 6 6 0 0 0 3 0 0 0 0 0 0 0 0 0 0 0 0 0 0 0 3 3 6 3 3 3 3
16 13 10 10 10 13 13 6 10 10 6 10 6 6 6 3 6 3 3 0 0 0 0 0 0 0 0 0 0 0 0 0 0 0 0 0 3 3 6 6 3 0 3
10 13 10 10 10 10 13 6 6 6 6 3 6 6 6 3 3 3 3 3 0 0 0 0 0 0 0 0 0 0 0 0 0 0 0 0 0 3 6 6 3 3 0
6 6 6 10 10 10 10 10 10 6 3 0 6 3 3 3 3 3 3 3 0 0 0 0 0 0 0 0 0 0 0 0 0 0 0 0 0 0 0 3 3 0 0
6 6 6 6 10 10 10 10 6 6 0 0 3 3 0 3 0 0 0 0 0 0 0 0 0 0 0 0 0 0 0 0 0 0 0 0 0 0 0 0 0 0 0
6 6 6 6 6 6 10 6 6 3 0 0 0 0 0 0 0 0 0 0 0 0 0 0 0 0 0 0 0 0 0 0 0 0 0 0 0 0 0 0 0 0 0
3 3 6 6 6 6 3 6 3 3 0 3 0 0 0 0 0 0 0 0 0 0 0 0 0 0 0 0 0 0 0 0 0 0 0 0 0 0 0 0 0 0 0
0 3 3 6 6 3 3 3 3 3 0 0 0 0 0 0 0 0 0 0 0 0 0 0 0 0 0 0 0 0 0 0 0 0 0 0 0 0 0 0 0 0 0
0 0 3 3 3 0 0 3 3 3 0 0 0 0 0 0 0 0 0 0 0 0 0 0 0 0 0 0 0 0 0 0 0 0 0 0 0 0 0 0 0 0 0
0 0 0 0 0 3 3 3 0 0 0 0 0 0 0 0 0 0 0 0 0 0 0 0 0 0 0 0 0 0 0 0 0 0 0 0 0 0 0 0 0 0 0
0 0 0 0 0 3 3 3 0 0 0 0 0 0 0 0 0 0 0 0 0 0 0 0 0 0 0 0 0 0 0 0 0 0 0 0 0 0 0 0 0 0 0
0 0 0 0 0 0 3 3 0 0 0 0 0 0 0 0 0 0 0 0 0 0 0 0 0 0 0 0 0 0 0 0 0 0 0 0 0 0 0 0 0 0 0
0 0 0 0 0 0 0 3 0 0 0 0 0 0 0 0 0 0 0 0 0 0 0 0 0 0 0 0 0 0 0 0 0 0 0 0 0 0 0 0 0 0 0
0 0 0 0 0 0 0 0 0 0 0 0 0 0 0 0 0 0 0 0 0 0 0 0 0 0 0 0 0 0 0 0 0 0 0 0 0 0 0 0 0 0 0

GEFSSE_con_cape1000_234.txt.gz
Probability
19 48 81 84 81 74 71 65 65 65 61 65 61 58 55 52 48 45 45 45 45 42 29 26 26 26 23 19 19 10 13 16 13 10 6 6 6 10 6 10 10 3 10
29 61 77 81 74 68 65 68 68 65 65 61 61 61 55 52 48 42 42 39 35 35 29 23 19 19 16 13 13 16 16 16 10 10 10 6 3 3 6 3 10 3 6
48 58 71 77 68 68 68 68 68 65 61 58 61 61 58 55 52 45 39 39 35 32 32 23 23 19 19 19 19 10 13 13 6 6 3 0 3 6 3 3 6 10 10
48 58 61 68 65 65 68 68 61 61 58 58 61 58 58 52 45 45 45 42 35 32 32 29 26 23 23 19 16 16 16 13 10 0 0 0 0 10 10 6 6 0 6
52 52 55 65 65 65 65 61 61 61 55 58 55 52 48 45 42 39 39 39 32 29 26 26 26 26 26 23 13 13 13 10 3 0 0 0 0 10 10 6 3 0 6
39 48 55 65 61 61 61 55 52 52 48 45 45 42 42 35 35 39 42 39 32 29 26 26 26 26 32 29 16 16 13 13 3 0 0 0 0 6 6 0 3 3 0
32 39 52 61 55 48 45 48 48 39 35 32 35 35 32 32 32 32 29 29 29 32 23 23 23 19 16 16 13 10 10 3 3 0 0 0 0 6 6 3 3 3 0
26 35 42 48 48 48 45 35 32 32 29 29 29 29 29 32 26 26 26 19 23 23 23 19 16 13 13 13 10 6 0 0 0 0 0 0 3 6 3 10 3 3 0
26 29 29 39 39 39 35 32 29 26 29 29 26 23 19 19 19 19 19 16 16 16 16 26 16 10 10 10 6 3 3 0 0 0 0 0 6 6 10 13 10 3 0
23 26 26 29 23 26 26 23 23 23 19 23 23 19 19 16 19 16 13 13 16 19 16 10 10 10 13 10 6 3 3 0 0 0 0 0 6 6 6 10 10 0 0
19 19 23 19 19 19 13 16 13 13 16 13 16 6 10 13 13 13 13 13 13 10 6 6 10 10 3 3 3 0 0 0 0 0 0 0 3 3 3 3 6 3 0
16 16 16 16 13 13 10 10 6 6 6 10 3 3 3 6 10 10 3 10 6 6 6 6 6 3 0 0 0 0 0 0 0 0 0 0 3 3 3 3 3 0 3
13 13 16 13 13 10 10 3 3 3 3 3 3 3 3 3 6 6 0 3 3 3 3 0 0 0 0 0 0 0 0 0 0 0 0 0 3 3 3 3 3 0 0
13 13 10 13 13 10 6 3 3 3 3 3 3 3 3 3 3 3 0 0 0 0 0 0 0 0 0 0 0 0 0 0 0 0 0 0 3 3 3 6 3 0 0
13 10 10 10 10 10 3 3 3 3 3 3 3 3 3 0 0 0 0 0 0 0 0 0 0 0 0 0 0 0 0 0 0 0 0 0 0 0 3 6 6 3 3
13 10 10 10 10 10 3 3 3 3 0 0 0 0 0 0 0 0 0 0 0 0 0 0 0 0 0 0 0 0 0 0 0 0 0 0 0 0 3 6 6 6 0
3 10 10 10 10 6 3 3 0 0 0 0 0 0 0 0 0 0 0 0 0 0 0 0 0 0 0 0 0 0 0 0 0 0 0 0 0 0 0 3 3 3 3
0 3 6 10 10 10 3 3 3 0 0 0 0 0 0 0 0 0 0 0 0 0 0 0 0 0 0 0 0 0 0 0 0 0 0 0 0 0 0 0 3 3 3
0 0 6 6 10 10 3 3 3 0 0 0 0 0 0 0 0 0 0 0 0 0 0 0 0 0 0 0 0 0 0 0 0 0 0 0 0 0 0 0 0 0 0
0 0 0 3 6 6 6 3 0 0 0 0 0 0 0 0 0 0 0 0 0 0 0 0 0 0 0 0 0 0 0 0 0 0 0 0 0 0 0 0 0 0 0
0 0 0 0 3 0 3 3 3 0 0 0 0 0 0 0 0 0 0 0 0 0 0 0 0 0 0 0 0 0 0 0 0 0 0 0 0 0 0 0 0 0 0
0 0 0 0 3 0 0 3 0 0 0 0 0 0 0 0 0 0 0 0 0 0 0 0 0 0 0 0 0 0 0 0 0 0 0 0 0 0 0 0 0 0 0
0 0 0 0 0 0 0 0 0 0 0 0 0 0 0 0 0 0 0 0 0 0 0 0 0 0 0 0 0 0 0 0 0 0 0 0 0 0 0 0 0 0 0
0 0 0 0 0 0 0 0 0 0 0 0 0 0 0 0 0 0 0 0 0 0 0 0 0 0 0 0 0 0 0 0 0 0 0 0 0 0 0 0 0 0 0
0 0 0 0 0 0 0 0 0 0 0 0 0 0 0 0 0 0 0 0 0 0 0 0 0 0 0 0 0 0 0 0 0 0 0 0 0 0 0 0 0 0 0
0 0 0 0 0 0 0 0 0 0 0 0 0 0 0 0 0 0 0 0 0 0 0 0 0 0 0 0 0 0 0 0 0 0 0 0 0 0 0 0 0 0 0

GEFSSE_con_cape1000_240.txt.gz
Probability
6 32 65 74 77 74 71 61 65 65 58 58 58 55 48 48 39 45 52 45 42 35 39 32 26 26 23 23 23 13 13 6 6 10 10 6 6 6 6 6 6 0 16
16 45 65 74 77 71 61 65 65 65 68 58 45 45 42 39 39 42 39 35 32 26 26 29 26 23 23 19 19 23 16 10 10 10 10 6 6 6 3 3 10 0 10
32 52 65 74 68 68 65 65 65 65 61 55 52 45 45 45 45 32 32 32 29 32 29 19 19 19 16 19 19 19 13 13 10 6 3 0 0 0 0 10 10 6 13
42 58 65 71 65 65 65 65 65 61 58 55 55 55 55 52 45 42 39 39 32 35 29 23 19 23 19 23 23 19 16 10 6 0 0 0 0 0 0 10 13 10 10
45 52 61 65 71 65 65 61 61 61 55 55 55 55 52 52 45 45 35 39 32 32 26 26 23 23 19 19 19 16 13 10 3 0 0 0 0 10 6 6 10 10 10
48 52 58 65 65 65 61 58 61 58 55 55 48 48 48 45 45 35 39 39 26 26 26 26 26 26 19 19 19 16 19 10 0 0 0 0 0 6 0 3 6 3 3
45 48 48 65 61 61 61 58 52 52 45 45 45 42 39 39 35 35 32 35 29 29 26 26 23 16 23 19 13 10 6 0 0 0 0 0 0 3 3 3 6 6 3
42 45 42 55 55 55 48 48 48 42 45 39 39 35 32 29 29 29 32 29 29 26 26 19 16 13 19 13 13 6 3 0 0 0 0 0 0 3 3 6 10 6 6
32 39 35 39 39 39 42 35 39 32 32 32 29 29 26 29 29 26 26 23 16 16 19 19 16 16 16 16 6 6 0 0 0 0 0 0 3 6 3 3 3 6 3
29 26 26 26 26 23 23 23 23 23 26 26 26 23 23 23 19 16 16 16 16 19 16 13 13 16 16 13 6 0 0 0 0 0 0 0 3 6 3 3 6 0 0
23 23 19 19 23 19 19 19 16 16 16 13 16 10 10 10 10 10 10 13 16 13 13 13 13 16 10 3 0 0 0 0 0 0 0 0 6 6 6 3 3 0 0
23 19 19 19 16 16 16 16 16 13 13 6 6 6 6 10 10 10 10 10 10 13 13 13 13 3 0 0 0 0 0 0 0 0 0 3 6 6 3 3 0 0 0
19 19 19 10 10 10 10 6 6 6 6 6 6 6 6 6 6 10 10 6 10 3 0 3 0 0 0 0 0 0 0 0 0 0 0 0 3 3 3 3 0 3 3
16 16 13 10 10 6 6 3 3 3 3 3 6 6 6 6 6 6 6 6 3 0 0 0 0 0 0 0 0 0 0 0 0 0 0 0 3 3 6 3 3 3 0
16 16 13 13 6 3 3 3 3 3 3 3 3 6 6 6 6 6 3 3 0 0 0 0 0 0 0 0 0 0 0 0 0 0 0 0 0 3 6 3 3 0 3
10 13 10 6 6 3 3 3 3 3 3 3 3 3 3 6 3 3 0 0 0 0 0 0 0 0 0 0 0 0 0 0 0 0 0 0 0 0 3 3 3 3 0
6 10 10 6 6 3 3 3 3 3 3 3 3 0 0 0 0 0 0 0 0 0 0 0 0 0 0 0 0 0 0 0 0 0 0 0 0 0 0 3 3 0 3
6 6 6 6 6 6 3 3 3 3 3 3 0 0 0 0 0 0 0 0 0 0 0 0 0 0 0 0 0 0 0 0 0 0 0 0 0 0 0 0 0 0 0
6 3 3 6 6 6 6 3 3 3 0 0 0 0 0 0 0 0 0 0 0 0 0 0 0 0 0 0 0 0 0 0 0 0 0 0 0 0 0 0 0 0 0
0 3 3 6 6 6 6 3 0 0 0 0 0 0 0 0 0 0 0 0 0 0 0 0 0 0 0 0 0 0 0 0 0 0 0 0 0 0 0 0 0 0 0
0 3 3 3 3 6 3 3 3 0 0 0 0 0 0 0 0 0 0 0 0 0 0 0 0 0 0 0 0 0 0 0 0 0 0 0 0 0 0 0 0 0 0
0 0 3 3 3 3 0 0 0 0 0 0 0 0 0 0 0 0 0 0 0 0 0 0 0 0 0 0 0 0 0 0 0 0 0 0 0 0 0 0 0 0 0
0 0 0 3 3 3 0 0 0 0 0 0 0 0 0 0 0 0 0 0 0 0 0 0 0 0 0 0 0 0 0 0 0 0 0 0 0 0 0 0 0 0 0
0 0 0 0 3 3 0 0 0 0 0 0 0 0 0 0 0 0 0 0 0 0 0 0 0 0 0 0 0 0 0 0 0 0 0 0 0 0 0 0 0 0 0
0 0 0 0 0 0 0 0 0 0 0 0 0 0 0 0 0 0 0 0 0 0 0 0 0 0 0 0 0 0 0 0 0 0 0 0 0 0 0 0 0 0 0
0 0 0 0 0 0 0 0 0 0 0 0 0 0 0 0 0 0 0 0 0 0 0 0 0 0 0 0 0 0 0 0 0 0 0 0 0 0 0 0 0 0 0

GEFSSE_con_cape1000_246.txt.gz
Probability
45 55 68 71 71 65 65 68 68 61 58 55 58 48 55 55 55 58 52 48 42 42 39 39 39 29 23 16 10 10 13 13 13 13 10 6 13 13 13 6 10 6 13
48 55 65 71 68 65 65 65 65 61 58 58 45 45 48 52 52 48 48 45 42 39 39 35 29 23 13 13 16 16 13 13 13 13 10 6 3 10 6 6 10 6 13
48 55 55 68 68 65 65 68 61 58 61 58 52 45 45 45 48 45 45 39 42 39 35 26 23 19 13 13 10 10 10 13 13 10 6 3 3 3 10 10 10 10 10
45 55 55 68 68 68 68 65 61 58 52 52 52 48 45 39 35 39 39 35 35 26 26 26 19 23 23 16 13 13 13 13 10 6 0 0 0 3 3 10 10 10 6
48 55 55 65 68 68 65 61 58 52 55 52 52 52 45 42 35 39 39 32 26 23 19 23 23 23 23 19 19 13 13 13 6 0 3 0 0 3 6 10 10 13 13
48 55 58 61 68 68 61 58 55 52 52 55 48 48 48 42 35 32 35 29 26 26 26 23 26 23 23 23 19 13 10 10 3 0 3 3 3 6 13 13 16 13 13
48 55 55 58 65 68 61 58 55 48 45 42 45 45 39 35 35 32 29 29 29 26 23 23 23 23 23 19 16 13 10 3 3 3 0 6 6 6 6 10 6 6 6
52 48 55 58 58 58 52 52 52 48 45 39 39 39 35 32 32 29 29 26 26 26 26 19 19 19 19 16 16 16 6 0 0 0 3 6 0 10 10 3 3 6 6
48 45 48 52 48 45 48 48 42 42 32 32 32 26 26 26 26 23 23 19 23 19 23 19 16 16 16 16 16 16 3 0 0 3 3 6 0 3 3 3 6 6 6
42 42 45 48 42 42 32 26 26 29 29 29 19 19 19 26 26 19 19 19 19 13 13 16 16 16 13 16 16 10 3 0 0 6 3 0 0 3 3 0 3 6 3
35 42 39 42 42 32 29 16 16 19 16 16 16 10 13 19 19 16 13 13 13 13 13 13 16 16 13 10 3 3 0 0 0 3 0 0 3 3 0 3 3 3 3
29 39 35 32 23 26 19 19 23 19 16 16 16 16 13 16 13 13 0 3 13 10 6 6 6 13 10 10 0 0 0 0 0 0 0 0 3 3 3 3 3 3 3
26 19 19 19 19 16 19 19 19 19 13 16 16 13 13 13 10 10 13 13 13 3 10 3 3 6 10 10 3 0 0 0 0 0 0 0 3 3 3 3 3 3 3
23 13 16 19 16 13 13 13 16 10 10 10 10 13 10 6 6 10 13 10 10 6 13 13 13 10 6 0 0 3 0 3 3 3 0 0 3 6 3 3 0 3 3
19 13 13 13 16 13 13 13 10 10 10 10 10 10 6 3 3 6 6 10 10 6 6 10 10 6 0 0 0 0 3 3 3 3 0 0 0 3 3 6 3 6 0
10 6 10 13 13 13 10 10 10 10 10 10 6 3 3 3 6 6 6 6 10 6 3 6 3 0 0 0 0 0 0 3 3 3 3 0 0 0 3 3 6 6 6
10 6 6 13 13 10 6 6 6 6 6 6 3 3 3 3 6 3 6 6 10 10 10 6 0 0 0 0 0 0 0 0 3 0 3 3 0 0 0 3 3 3 0
6 6 6 6 6 10 6 6 6 6 6 6 3 3 3 3 3 3 3 3 6 10 6 6 0 0 0 0 0 0 0 0 3 0 0 3 3 0 0 0 3 3 0
3 6 6 6 6 6 6 6 6 6 6 6 3 3 3 3 3 3 3 3 3 3 0 0 0 0 0 0 0 0 0 0 0 0 0 0 3 0 0 0 0 0 0
3 3 3 6 3 6 6 6 6 6 6 3 3 3 3 3 3 3 3 3 0 0 0 0 0 0 0 0 0 0 0 0 0 0 0 0 0 0 0 0 0 0 0
3 6 3 0 3 3 6 6 3 3 3 3 3 3 3 3 3 3 0 0 0 0 0 0 0 0 0 0 0 0 0 0 0 0 0 0 0 0 0 0 0 0 0
3 3 6 3 3 3 0 3 6 3 3 3 3 0 0 0 0 0 0 0 0 0 0 0 0 0 0 0 0 0 0 0 0 0 0 0 0 0 0 0 0 0 0
3 3 3 3 3 3 3 3 3 3 3 0 0 0 0 0 0 0 0 0 0 0 0 0 0 0 0 0 0 0 0 0 0 0 0 0 0 0 0 0 0 0 0
3 3 3 3 3 3 3 3 3 3 3 0 0 0 0 0 0 0 0 0 0 0 0 0 0 0 0 0 0 0 0 0 0 0 0 0 0 0 0 0 0 0 0
0 3 3 3 3 3 3 3 3 6 3 3 0 0 0 0 0 0 0 0 0 0 0 0 0 0 0 0 0 0 0 0 0 0 0 0 0 0 0 0 0 0 0
0 0 3 3 3 3 3 3 3 3 3 3 0 0 0 0 0 0 0 0 0 0 0 0 0 0 0 0 0 0 0 0 0 0 0 0 0 0 0 0 0 0 0

GEFSSE_con_cape1000_252.txt.gz
Probability
48 48 71 68 61 65 68 68 68 58 55 45 48 52 52 55 52 52 48 42 39 42 39 39 42 26 23 26 19 13 16 13 13 13 16 10 6 10 13 19 13 10 16
52 48 68 68 65 65 68 68 65 55 52 48 42 52 55 52 52 48 42 39 35 32 32 35 29 23 23 19 19 10 13 16 10 16 16 13 10 10 10 13 13 10 13
48 52 61 65 65 65 65 65 61 55 52 45 42 45 52 45 48 45 39 32 32 32 32 23 19 19 19 23 10 10 13 10 10 10 6 6 10 10 10 13 13 10 10
42 52 55 61 61 61 61 61 58 55 52 48 45 45 42 48 45 42 35 32 29 32 26 23 19 16 19 16 10 13 13 13 6 6 0 0 0 10 13 13 10 10 6
39 52 55 61 61 61 58 58 55 48 48 48 48 48 48 42 45 42 35 32 29 29 19 19 19 23 23 16 16 19 19 16 6 3 0 0 0 6 13 13 13 10 10
39 52 55 61 61 61 55 55 55 52 48 48 48 48 42 39 45 35 32 19 23 23 16 23 23 23 19 16 13 19 16 13 3 0 0 0 0 6 10 13 13 10 13
42 42 58 61 65 58 55 55 48 45 42 42 42 42 39 39 35 32 23 23 23 19 16 19 19 19 16 16 13 16 16 10 0 0 0 0 0 10 10 10 10 10 13
39 45 52 65 61 58 55 55 45 45 39 39 39 35 35 29 23 23 23 23 23 23 19 19 16 16 16 10 10 13 10 0 0 0 0 0 3 13 10 13 13 10 6
32 45 42 42 45 48 45 42 39 39 42 39 39 35 26 26 23 19 26 19 19 16 16 16 16 13 13 10 10 10 10 0 0 0 3 0 3 13 13 16 10 6 6
29 32 39 39 35 39 35 35 32 32 29 29 19 13 16 16 19 13 13 13 16 16 16 16 13 13 10 10 10 10 0 0 0 0 0 0 6 13 13 10 6 6 6
29 32 26 29 23 23 29 29 26 23 16 10 6 6 6 6 10 10 6 10 13 16 16 13 13 13 6 6 6 0 0 0 0 0 0 0 13 13 10 6 6 6 6
35 32 26 23 23 16 16 16 23 16 6 6 6 6 6 6 6 6 3 3 6 6 10 13 13 6 6 3 0 0 0 0 0 0 0 0 13 10 10 6 6 3 0
35 29 23 23 19 16 10 16 10 10 10 6 3 6 3 6 6 3 0 0 0 0 0 0 0 0 0 0 0 0 0 0 0 0 0 0 10 10 6 6 3 3 0
19 16 16 16 16 19 13 10 10 6 10 6 6 6 6 3 3 3 0 0 0 0 0 0 0 0 0 0 0 0 0 0 0 0 0 0 10 10 6 3 3 3 0
13 10 13 16 13 13 16 6 10 6 10 10 6 6 6 6 3 3 3 0 0 0 0 0 0 0 0 0 0 0 0 0 0 0 0 0 0 3 6 3 0 3 0
13 6 3 6 6 10 10 10 10 6 6 10 6 6 6 6 3 3 3 3 3 3 0 0 0 0 0 0 0 0 0 0 0 0 0 0 0 0 6 3 3 3 0
10 3 3 3 6 6 10 13 6 6 6 6 6 6 6 6 3 3 3 3 3 3 0 0 0 0 0 0 0 0 0 0 0 0 0 0 0 0 0 6 3 6 6
3 3 3 3 6 6 6 6 6 6 6 6 6 6 6 3 3 3 3 0 0 0 0 0 0 0 0 0 0 0 0 0 0 0 0 0 0 0 0 0 6 6 3
3 3 3 3 6 6 6 3 6 6 6 3 6 6 3 3 3 3 0 0 0 0 0 0 0 0 0 0 0 0 0 0 0 0 0 0 0 0 0 0 0 0 3
3 0 3 3 3 6 3 0 3 3 3 3 3 6 3 3 3 3 0 0 0 0 0 0 0 0 0 0 0 0 0 0 0 0 0 0 0 0 0 0 0 0 0
0 0 3 3 3 6 0 0 3 3 3 3 3 3 3 3 3 0 0 0 0 0 0 0 0 0 0 0 0 0 0 0 0 0 0 0 0 0 0 0 0 0 0
0 0 0 3 3 3 3 0 0 0 0 3 3 3 3 0 0 0 0 0 0 0 0 0 0 0 0 0 0 0 0 0 0 0 0 0 0 0 0 0 0 0 0
0 0 0 3 3 3 3 3 0 0 0 3 3 3 0 0 0 0 0 0 0 0 0 0 0 0 0 0 0 0 0 0 0 0 0 0 0 0 0 0 0 0 0
0 0 0 3 3 3 3 3 0 0 0 3 3 0 0 0 0 0 0 0 0 0 0 0 0 0 0 0 0 0 0 0 0 0 0 0 0 0 0 0 0 0 0
0 0 0 0 0 3 3 3 0 0 0 0 0 0 0 0 0 0 0 0 0 0 0 0 0 0 0 0 0 0 0 0 0 0 0 0 0 0 0 0 0 0 0
0 0 0 0 0 0 0 0 0 0 0 0 0 0 0 0 0 0 0 0 0 0 0 0 0 0 0 0 0 0 0 0 0 0 0 0 0 0 0 0 0 0 0